カタログに戻る

CZ-4 DEB

運用中SSO
NORAD 35322·DEBRIS·🇨🇳 China

打ち上げ Oct 14, 1999 から Taiyuan Satellite Launch Center

Loading…

次のパス (今後24時間)

TLE

最新Source: Space-Track

元期: Sep 13, 2026, 09:04 UTC

1 35322U 99057SA  26256.37819903  .00000308  00000-0  15378-3 0  9994
2 35322  99.0748 306.5219 0195791 203.2036 156.0206 14.14658006683640

AllMySatでCZ-4 DEBをリアルタイム追跡

Download on the App Store